Temperature
18 17 17 17 17 17 17 17 17 17 17 17 17 17 18 18 18 18 18 18 18 18 18 18 18 18 18 18 18 18 18 18 18 17 17 17 17 17 17 17 17 17 17
17 17 17 17 17 17 17 17 17 17 17 17 17 17 17 17 17 17 17 17 17 17 17 17 17 18 18 18 18 18 18 18 17 17 17 17 17 17 17 17 17 17 17
17 17 17 17 17 17 17 17 17 17 17 17 17 17 17 17 17 17 17 17 17 17 17 17 17 17 17 18 18 18 18 18 18 17 17 17 17 17 17 17 17 17 17
17 17 17 16 16 16 16 16 16 16 16 16 16 16 17 17 17 17 17 17 17 17 17 17 17 17 17 17 18 18 18 18 18 17 17 17 17 17 17 17 17 17 17
16 16 16 16 16 16 16 16 16 16 16 16 16 16 16 16 16 17 17 17 17 17 17 17 17 17 17 17 17 17 18 18 18 17 17 17 17 17 17 17 17 17 17
16 16 16 16 16 15 15 15 15 15 15 15 15 16 16 16 16 16 17 17 17 17 17 17 17 17 17 17 17 17 17 17 17 17 17 17 17 17 17 17 17 17 17
16 16 15 15 15 15 15 15 15 15 15 15 15 15 16 16 16 16 16 17 17 16 16 16 16 16 16 16 17 17 17 17 17 17 17 17 17 17 17 17 17 17 17
15 15 15 15 15 15 14 14 14 14 14 14 14 14 15 15 16 16 16 16 16 16 16 16 16 16 16 16 16 16 17 17 17 17 17 17 17 17 17 17 17 17 17
15 15 15 14 14 14 14 14 14 14 14 14 14 14 14 14 14 15 15 16 16 16 16 16 16 16 16 16 16 16 16 16 16 17 17 17 17 17 17 17 17 17 17
14 14 14 14 14 14 14 14 13 13 13 13 13 13 13 13 13 14 15 15 15 15 15 16 16 16 16 16 16 16 16 16 16 16 16 16 17 17 17 17 17 17 17
14 14 14 14 14 13 13 13 13 13 13 13 13 13 13 13 13 13 13 14 15 15 15 15 15 16 16 16 16 16 16 16 16 16 16 16 16 16 16 17 17 17 17
14 14 13 13 13 13 13 13 13 12 12 12 12 12 12 12 13 12 13 13 14 14 15 15 15 15 15 15 15 16 16 16 16 16 16 16 16 16 16 16 16 16 17
13 13 13 13 13 13 12 12 12 12 12 12 12 12 12 12 12 12 12 12 13 13 14 14 15 15 15 15 15 15 15 15 15 16 16 16 15 16 16 16 16 16 16
13 13 13 13 12 12 12 12 12 12 11 11 11 11 11 12 12 12 12 12 12 13 13 14 14 14 14 14 14 15 15 15 15 15 15 15 15 15 15 16 16 16 16
13 13 12 12 12 12 12 12 11 11 11 11 11 11 11 11 11 11 11 11 11 11 12 13 13 14 14 14 14 14 14 14 15 15 15 15 15 15 15 15 16 16 16
13 12 12 12 12 12 11 11 11 11 11 11 11 11 11 11 11 11 11 11 11 11 11 12 12 13 13 13 13 13 14 14 14 14 14 15 15 15 15 15 15 15 16
12 12 12 12 12 11 11 11 11 11 11 11 10 10 10 10 10 11 11 11 11 11 11 11 12 12 13 13 13 13 13 13 14 14 14 14 15 15 15 15 15 15 15
12 12 12 11 11 11 11 11 11 11 10 10 10 10 10 10 10 10 10 10 10 10 10 11 11 12 12 12 12 13 13 13 13 14 14 14 14 14 15 15 15 15 15
12 12 12 11 11 11 11 11 11 11 10 10 10 10 10 10 10 10 10 10 10 10 10 10 11 11 11 12 12 12 12 12 13 13 13 14 14 14 14 14 15 15 15
12 12 12 11 11 11 11 11 11 10 10 10 10 10 10 10 10 10 10 10 10 10 10 10 10 10 11 11 11 11 12 12 12 13 13 13 13 14 14 14 14 14 15
12 12 12 11 11 11 11 11 10 10 10 10 10 10 10 10 10 9 9 9 9 9 9 9 10 10 10 10 11 11 11 12 12 12 12 13 13 13 14 14 14 14 14
12 12 12 11 11 11 11 11 10 10 10 10 10 10 10 10 9 9 9 9 9 9 9 9 9 9 10 10 10 10 10 11 11 12 12 12 12 13 13 13 14 14 14
12 12 12 12 11 11 11 11 11 10 10 10 10 10 10 10 9 9 9 9 9 9 9 9 9 9 9 10 10 10 10 10 11 11 11 12 12 12 13 13 13 14 14
13 12 12 12 12 11 11 11 11 10 10 10 10 10 10 9 9 9 9 9 9 9 9 9 9 9 9 9 9 9 9 10 10 11 11 11 12 12 13 13 13 13 14
13 12 12 12 12 12 11 11 11 10 10 10 10 10 9 9 9 9 9 9 9 9 9 9 9 9 9 9 9 9 9 9 10 10 11 10 11 12 12 13 13 13 13
13 12 12 12 12 12 12 11 11 11 11 10 10 10 9 9 9 9 8 8 8 9 8 8 8 9 9 9 9 9 9 9 9 9 11 11 11 11 11 12 12 13 13
Wind_Speed
2 3 2 3 3 4 4 4 4 4 4 5 6 6 6 8 8 8 10 16 20 21 20 21 21 21 21 21 20 20 19 19 19 19 18 18 17 17 16 16 16 16 15
3 2 2 2 2 3 4 4 3 3 3 3 4 5 6 7 8 9 10 14 20 22 21 22 22 22 23 22 22 22 21 20 20 20 20 20 19 19 18 17 17 17 16
4 3 1 1 1 1 1 1 1 1 1 2 3 4 5 6 6 8 10 12 16 20 22 22 23 24 24 24 24 23 23 23 22 22 21 21 21 20 20 19 18 18 18
6 4 2 1 1 2 2 1 1 1 0 1 2 4 3 4 6 8 9 12 14 15 19 23 23 24 25 25 25 25 25 25 24 24 23 23 22 22 22 21 20 19 19
6 5 3 2 3 3 2 1 1 1 0 2 3 4 3 4 4 6 7 11 13 15 16 20 24 26 26 26 26 26 26 26 26 26 25 25 24 24 23 23 22 21 21
6 5 3 3 3 3 2 2 1 1 0 2 3 4 4 4 4 5 6 8 11 14 16 17 19 21 26 27 27 27 27 27 27 27 27 26 26 25 25 25 24 23 22
6 5 3 3 3 2 2 2 1 2 2 1 2 4 5 4 4 4 4 4 6 11 14 15 16 16 18 26 28 28 28 28 28 29 29 28 28 27 27 26 26 25 24
5 4 3 2 2 2 3 3 2 2 2 2 1 2 4 5 4 3 2 3 4 5 7 12 13 15 16 16 21 27 28 29 29 29 30 30 29 29 28 28 27 27 26
3 4 4 3 3 3 2 2 2 2 1 2 1 2 1 2 4 4 3 3 2 3 4 5 9 12 15 15 16 21 26 28 29 29 30 31 30 30 30 29 29 28 27
1 2 3 4 3 3 3 1 2 2 2 1 2 0 2 3 1 4 4 4 4 2 3 3 4 8 11 13 15 17 21 25 27 28 29 30 31 31 31 31 30 29 28
4 4 4 3 3 2 2 2 2 1 1 1 1 1 1 1 1 2 4 5 5 4 3 3 3 4 7 10 12 16 19 21 24 26 28 30 30 31 32 32 32 31 30
4 5 5 4 3 2 1 0 0 1 0 1 1 2 2 1 2 2 3 4 4 4 4 3 3 2 5 7 10 13 15 17 19 20 23 26 29 31 32 33 33 32 31
2 2 3 2 1 0 0 0 0 1 1 1 2 2 2 3 3 3 3 3 3 4 4 3 3 2 3 4 6 9 11 13 15 18 20 22 26 29 30 32 33 33 32
1 1 1 1 1 1 1 0 1 2 1 2 3 3 3 3 3 3 3 2 3 3 3 4 3 2 3 4 5 8 8 11 13 16 18 19 21 24 27 29 31 33 33
2 1 1 1 1 1 1 1 2 3 3 3 4 4 3 3 3 3 3 4 3 3 4 4 3 3 3 4 6 6 8 10 12 14 16 18 19 21 23 25 28 30 32
1 1 1 1 2 3 3 2 3 4 4 4 3 4 4 3 4 3 3 3 4 5 4 4 4 4 4 4 6 6 8 10 12 12 14 17 19 20 21 23 25 28 30
2 2 2 2 3 3 3 3 4 5 4 5 4 4 5 5 4 4 3 3 3 4 5 5 4 4 4 5 5 6 8 9 10 13 14 16 18 20 22 23 25 26 28
3 4 4 3 4 4 4 4 5 5 5 5 5 5 6 5 5 4 4 4 4 4 5 6 4 3 5 5 5 5 5 7 9 12 15 16 18 20 21 22 24 26 27
4 4 4 5 5 5 5 5 5 6 6 6 6 6 6 5 6 5 5 5 5 5 4 5 5 4 4 4 4 5 5 4 7 10 13 15 17 19 20 22 24 25 26
5 5 5 6 6 6 6 6 5 5 5 6 6 6 7 7 7 7 6 6 6 5 4 4 5 4 4 4 2 4 4 4 5 6 8 10 12 15 18 20 22 23 25
5 5 5 5 6 5 6 6 6 6 6 6 6 7 7 9 11 9 7 6 6 5 5 5 5 4 4 3 4 3 4 4 4 4 4 5 5 6 9 15 19 22 23
5 5 5 6 6 6 8 9 8 6 6 6 7 7 8 9 11 11 12 11 9 8 7 6 5 6 7 6 5 4 3 3 4 3 2 5 4 6 6 9 15 19 22
5 5 6 6 7 9 11 12 11 7 7 7 8 7 8 8 9 7 9 11 10 13 13 9 8 9 8 7 6 5 5 5 6 4 2 5 3 5 5 10 14 17 20
5 5 7 7 7 9 12 12 12 8 7 8 8 8 8 9 9 8 8 8 8 8 9 8 8 10 10 8 8 7 7 6 6 5 4 4 4 4 4 5 12 15 17
5 6 6 7 7 9 12 12 10 5 6 9 8 8 8 8 12 12 8 8 8 8 10 12 12 13 14 13 9 5 5 4 6 5 4 4 4 3 3 4 6 12 14
7 6 7 7 8 9 12 13 11 5 7 8 7 7 10 10 11 9 6 6 8 8 7 7 7 8 9 10 12 9 8 7 5 5 5 5 4 3 3 2 2 4 6
Wind_Direction
143 144 150 164 180 187 194 205 205 202 211 231 237 233 225 217 213 212 215 207 202 200 198 197 196 195 193 192 192 191 191 189 186 183 181 180 179 177 176 174 172 170 167
131 131 143 158 186 202 209 209 207 204 213 227 241 242 237 228 214 211 215 211 209 208 207 206 204 202 200 198 198 197 196 196 193 190 187 186 185 184 183 182 180 178 176
118 120 112 109 188 202 187 179 179 165 194 237 255 255 246 240 226 216 212 211 215 217 216 215 211 208 207 205 203 202 201 200 198 196 194 192 191 189 189 188 187 185 184
114 109 100 78 61 75 88 105 102 90 12 281 276 272 259 248 239 226 219 214 213 217 222 222 219 216 213 212 209 207 205 204 202 200 199 198 196 195 193 192 192 191 191
106 105 101 74 61 63 55 66 78 101 339 307 290 277 268 254 247 240 226 220 214 215 220 227 225 222 220 219 216 213 211 209 206 205 203 203 202 200 198 197 196 196 196
103 104 100 82 77 66 37 32 35 19 290 289 301 304 287 269 253 243 236 226 218 218 220 224 227 228 226 223 221 219 216 214 211 209 208 207 206 205 203 201 200 200 200
115 109 99 85 82 79 56 38 41 11 342 349 5 327 311 294 272 255 243 232 225 223 221 222 223 225 228 228 224 223 221 219 215 213 211 210 209 208 206 206 204 203 203
136 130 122 120 101 89 55 43 58 43 348 24 68 7 339 335 333 312 286 238 239 231 224 223 219 220 224 226 226 226 226 223 220 217 215 213 212 210 209 209 208 207 206
149 143 145 137 124 109 94 73 82 92 12 345 63 124 90 295 315 322 331 328 302 256 242 236 225 222 222 223 226 229 229 227 224 222 219 216 214 213 211 211 211 210 209
80 161 150 136 125 117 109 89 94 109 111 348 342 9 191 197 239 315 322 332 332 311 277 258 241 229 225 223 227 231 232 230 229 226 224 221 218 216 214 213 213 213 212
34 66 91 100 103 104 106 82 70 69 130 180 246 294 316 314 190 201 295 319 328 313 297 272 249 239 231 225 226 232 234 233 232 231 229 225 222 220 218 216 216 217 216
39 52 75 83 95 103 107 95 50 349 284 240 230 218 214 234 246 219 251 286 298 297 298 291 278 253 242 230 231 230 231 232 232 232 234 232 228 224 221 220 219 219 219
43 29 56 63 67 1 280 281 345 312 291 281 265 249 231 225 219 211 227 265 282 291 304 305 289 278 255 234 239 240 238 238 237 236 236 235 233 229 224 222 220 220 220
163 145 87 59 25 352 348 4 290 281 270 279 283 272 256 251 228 213 212 227 286 300 301 291 306 282 283 269 256 252 248 246 240 237 236 236 235 231 226 223 221 220 220
189 155 112 15 328 315 305 296 274 279 284 276 275 275 264 259 250 234 214 197 203 259 281 280 284 291 293 289 277 258 252 248 242 239 238 238 238 235 231 227 223 220 219
188 195 257 285 293 294 289 282 275 271 271 274 267 273 273 266 266 257 235 218 200 207 244 262 260 272 284 285 277 262 261 258 252 249 244 240 238 237 235 230 225 221 220
207 220 238 256 272 278 278 269 267 267 265 272 278 271 271 268 266 267 256 237 222 202 235 265 260 272 278 281 284 277 271 261 259 257 253 248 241 238 236 233 228 224 221
225 229 236 246 258 262 263 258 266 270 260 263 268 268 270 272 265 261 254 249 243 225 220 255 271 275 269 272 271 275 271 263 256 261 258 255 249 243 238 235 231 226 222
233 242 240 243 250 255 256 255 254 259 256 256 259 259 263 264 265 261 253 249 249 252 226 235 259 261 268 275 282 282 275 272 266 264 260 255 250 246 242 237 232 227 224
230 242 240 241 245 251 253 256 256 254 258 261 260 257 258 254 253 255 257 251 248 249 241 239 253 262 263 271 266 271 287 282 277 273 263 258 254 249 242 238 233 228 225
231 233 241 249 252 253 247 244 243 245 246 257 264 263 263 265 260 254 255 244 240 241 244 242 250 256 259 264 257 252 266 285 282 257 267 265 256 252 245 239 234 229 224
239 244 247 251 257 258 251 242 233 239 245 252 264 270 274 275 275 274 270 259 237 233 234 234 240 240 248 243 245 247 251 273 287 272 255 270 243 249 245 238 235 228 224
233 243 251 252 256 261 261 255 247 234 239 247 253 262 274 275 278 272 275 277 264 250 235 226 232 238 240 235 232 244 238 234 243 252 246 268 254 251 249 245 236 230 226
231 241 249 254 259 267 265 258 253 239 242 250 250 250 255 266 272 263 264 269 264 260 251 240 233 240 239 233 224 230 238 248 257 254 214 246 253 253 259 249 237 227 224
237 242 249 253 257 267 266 260 251 236 246 256 257 256 252 258 266 267 259 262 269 270 266 254 244 244 245 244 233 232 239 237 259 261 214 218 241 247 255 254 242 227 222
237 246 254 254 252 260 265 261 249 226 243 256 262 261 257 256 263 268 248 247 261 267 272 278 271 268 258 254 244 224 223 229 237 253 227 204 222 215 261 257 234 220 215
Height
1548 1549 1549 1550 1551 1551 1552 1553 1554 1554 1555 1557 1558 1559 1560 1561 1562 1564 1565 1565 1567 1568 1570 1571 1573 1574 1576 1577 1579 1580 1582 1583 1585 1587 1588 1590 1592 1593 1595 1597 1598 1600 1601
1547 1547 1548 1548 1549 1549 1550 1550 1551 1552 1553 1554 1555 1556 1557 1558 1559 1560 1561 1563 1564 1566 1567 1568 1570 1572 1573 1575 1576 1578 1580 1582 1583 1585 1587 1589 1591 1592 1594 1596 1598 1599 1601
1545 1545 1546 1546 1547 1547 1548 1548 1549 1549 1550 1551 1552 1553 1554 1555 1556 1557 1558 1559 1560 1562 1564 1565 1567 1569 1570 1572 1574 1575 1577 1579 1581 1583 1585 1587 1589 1591 1593 1595 1597 1598 1600
1544 1544 1544 1545 1546 1546 1546 1547 1547 1547 1548 1548 1549 1550 1550 1551 1552 1553 1554 1555 1556 1558 1560 1561 1563 1564 1566 1568 1570 1572 1574 1576 1579 1581 1583 1585 1587 1589 1591 1593 1595 1597 1599
1543 1542 1543 1543 1544 1544 1544 1545 1545 1545 1545 1545 1546 1546 1547 1547 1548 1549 1549 1551 1552 1553 1555 1557 1558 1560 1562 1564 1566 1568 1571 1573 1575 1577 1580 1582 1584 1586 1589 1591 1593 1595 1597
1541 1541 1541 1542 1542 1542 1543 1543 1543 1543 1543 1543 1543 1543 1543 1543 1544 1544 1545 1546 1547 1548 1550 1551 1553 1555 1557 1559 1561 1564 1566 1569 1571 1574 1576 1578 1581 1583 1586 1588 1590 1593 1595
1540 1540 1540 1541 1541 1541 1541 1541 1541 1541 1541 1541 1540 1539 1539 1540 1540 1541 1541 1542 1543 1544 1545 1546 1548 1549 1551 1554 1556 1558 1561 1564 1566 1569 1572 1574 1577 1579 1582 1585 1587 1590 1592
1540 1539 1539 1540 1540 1540 1540 1540 1539 1539 1539 1539 1538 1537 1537 1537 1537 1537 1538 1538 1538 1539 1540 1541 1542 1544 1546 1548 1550 1553 1555 1558 1561 1564 1567 1570 1572 1575 1578 1581 1583 1586 1588
1539 1538 1538 1538 1538 1538 1538 1538 1537 1537 1537 1537 1537 1537 1536 1535 1535 1535 1535 1535 1535 1535 1536 1537 1538 1539 1540 1542 1544 1547 1550 1553 1555 1558 1561 1564 1567 1570 1573 1576 1579 1582 1584
1537 1537 1537 1536 1536 1536 1536 1536 1535 1535 1535 1535 1535 1535 1535 1535 1535 1533 1533 1533 1533 1533 1533 1533 1534 1535 1536 1537 1539 1541 1544 1546 1549 1551 1554 1558 1561 1564 1568 1571 1574 1577 1580
1535 1535 1535 1535 1535 1534 1534 1534 1533 1533 1532 1532 1532 1532 1532 1533 1532 1532 1530 1530 1530 1530 1530 1530 1530 1531 1532 1533 1534 1535 1538 1540 1542 1545 1548 1551 1554 1558 1561 1565 1568 1571 1574
1534 1534 1533 1533 1533 1532 1532 1531 1531 1530 1530 1529 1529 1529 1529 1530 1529 1529 1528 1527 1527 1527 1527 1527 1527 1528 1528 1529 1529 1531 1532 1534 1536 1538 1541 1544 1547 1551 1555 1558 1562 1565 1568
1532 1532 1532 1531 1531 1530 1529 1529 1528 1527 1527 1526 1526 1526 1526 1526 1526 1526 1526 1525 1524 1523 1523 1524 1524 1525 1525 1525 1526 1526 1527 1529 1530 1532 1535 1537 1540 1544 1548 1551 1555 1558 1562
1530 1530 1529 1529 1528 1528 1527 1526 1525 1524 1524 1523 1523 1523 1523 1523 1523 1523 1523 1522 1521 1520 1520 1520 1521 1521 1521 1521 1522 1522 1523 1524 1525 1527 1529 1531 1533 1536 1540 1544 1547 1551 1555
1528 1528 1527 1526 1526 1525 1524 1523 1522 1521 1521 1520 1520 1519 1519 1519 1519 1519 1519 1519 1519 1517 1516 1516 1517 1517 1518 1517 1518 1518 1518 1519 1520 1521 1523 1525 1527 1530 1533 1536 1539 1543 1547
1526 1526 1525 1524 1523 1522 1521 1520 1519 1518 1518 1517 1516 1516 1515 1515 1515 1515 1515 1515 1514 1514 1512 1512 1513 1513 1513 1513 1514 1514 1514 1514 1515 1516 1517 1518 1520 1522 1525 1528 1531 1535 1539
1524 1523 1522 1521 1520 1519 1518 1517 1516 1516 1515 1514 1513 1512 1512 1511 1510 1510 1510 1510 1510 1509 1508 1507 1508 1508 1508 1508 1509 1509 1509 1509 1510 1510 1511 1512 1513 1515 1518 1520 1523 1527 1531
1522 1521 1520 1519 1518 1517 1516 1515 1514 1513 1512 1511 1510 1509 1508 1507 1506 1506 1505 1505 1504 1504 1503 1502 1502 1503 1503 1503 1503 1503 1504 1504 1504 1505 1505 1506 1507 1508 1510 1513 1515 1519 1523
1519 1518 1517 1516 1515 1514 1513 1512 1511 1510 1509 1507 1506 1505 1504 1503 1502 1501 1500 1500 1499 1499 1498 1497 1497 1497 1497 1498 1498 1498 1498 1498 1498 1499 1499 1499 1500 1501 1503 1505 1507 1511 1514
1517 1516 1515 1513 1512 1511 1510 1509 1508 1506 1505 1504 1502 1501 1499 1498 1497 1496 1495 1494 1494 1494 1493 1492 1491 1491 1492 1492 1492 1492 1492 1493 1493 1493 1493 1493 1494 1494 1495 1497 1499 1502 1506
1514 1513 1512 1510 1509 1508 1506 1505 1504 1503 1501 1499 1498 1496 1494 1493 1491 1490 1490 1489 1489 1488 1488 1487 1486 1486 1486 1486 1487 1487 1487 1486 1486 1487 1486 1487 1487 1488 1489 1490 1492 1494 1497
1511 1510 1509 1507 1506 1504 1503 1501 1500 1498 1497 1495 1493 1491 1490 1488 1486 1485 1485 1484 1483 1483 1482 1481 1480 1480 1480 1481 1481 1481 1481 1481 1480 1482 1481 1480 1481 1481 1482 1483 1485 1487 1490
1508 1507 1505 1504 1502 1501 1499 1497 1496 1494 1492 1490 1488 1487 1485 1483 1482 1480 1479 1478 1477 1477 1477 1476 1474 1474 1474 1475 1475 1475 1475 1475 1475 1475 1476 1474 1475 1475 1476 1477 1478 1480 1483
1504 1503 1501 1500 1498 1497 1495 1493 1491 1490 1488 1486 1484 1482 1480 1478 1477 1475 1474 1472 1471 1471 1471 1470 1469 1468 1468 1469 1469 1469 1469 1469 1468 1469 1470 1468 1469 1469 1470 1471 1472 1474 1476
1500 1499 1497 1496 1494 1492 1491 1489 1487 1485 1483 1481 1479 1477 1475 1473 1472 1470 1468 1466 1465 1465 1465 1464 1463 1462 1462 1462 1463 1463 1463 1463 1461 1462 1464 1463 1463 1463 1464 1464 1466 1467 1469
1496 1495 1493 1491 1489 1488 1486 1484 1483 1480 1478 1476 1475 1473 1470 1468 1466 1465 1463 1461 1459 1459 1458 1457 1457 1456 1456 1456 1456 1456 1456 1456 1456 1455 1457 1458 1458 1458 1458 1458 1460 1462 1463